Location: ?????
(42.2640°N, 43.4211°E)
Time: 15:20:20
(UTC+00:00)

Cosmos 1680 Rocket - Pass Details

Date: 07 August 2020
Orbit: 760 x 780 km, 74.1° (Epoch: 19 September)

Event Time Altitude Azimuth Distance (km) Brightness Sun altitude
Rises 00:32:45 0° 330° (NNW) 3,239 6.9 -15.4°
Reaches altitude 10° 00:35:21 10° 320° (NW) 2,306 6.0 -15.0°
Maximum altitude 00:39:53 31° 260° (W) 1,315 4.2 -14.4°
Enters shadow 00:42:41 19° 212° (SSW) 1,752 4.8 -14.0°
